| time (UTC) | temp C | wind direction | speed KPH | gust KPH | rain 1hr cm | rain 24hr cm | rain mn cm | humidity % | barometer mb |
| 20260507083923 | 12 | 299 | 1.6 | 4.8 | 0.00 | 0.00 | 0.00 | 77 | 1016.6 |
| 20260507083453 | 12 | 283 | 0.0 | 4.8 | 0.00 | 0.00 | 0.00 | 79 | 1016.7 |
| 20260507082912 | 12 | 239 | 1.6 | 3.2 | 0.00 | 0.00 | 0.00 | 78 | 1016.6 |
| 20260507082422 | 11 | 219 | 0.0 | 3.2 | 0.00 | 0.00 | 0.00 | 80 | 1016.6 |
| 20260507081913 | 11 | 298 | 0.0 | 3.2 | 0.00 | 0.00 | 0.00 | 81 | 1016.6 |
| 20260507081412 | 11 | 293 | 0.0 | 0.0 | 0.00 | 0.00 | 0.00 | 80 | 1016.6 |
| 20260507080924 | 11 | 294 | 0.0 | 1.6 | 0.00 | 0.00 | 0.00 | 81 | 1016.7 |
| 20260507080418 | 11 | 239 | 0.0 | 3.2 | 0.00 | 0.00 | 0.00 | 82 | 1016.6 |
| 20260507075945 | 11 | 281 | 1.6 | 3.2 | 0.00 | 0.00 | 0.00 | 83 | 1016.5 |
| 20260507075437 | 11 | 263 | 0.0 | 4.8 | 0.00 | 0.10 | 0.00 | 82 | 1016.5 |
| 20260507074921 | 11 | 173 | 0.0 | 4.8 | 0.00 | 0.10 | 0.00 | 82 | 1016.5 |
| 20260507074413 | 11 | 300 | 0.0 | 3.2 | 0.00 | 0.10 | 0.00 | 83 | 1016.4 |
| 20260507073919 | 10 | 264 | 0.0 | 4.8 | 0.00 | 0.10 | 0.00 | 83 | 1016.3 |
| 20260507073414 | 10 | 295 | 1.6 | 4.8 | 0.00 | 0.10 | 0.00 | 83 | 1016.4 |
| 20260507072947 | 10 | 262 | 0.0 | 6.4 | 0.00 | 0.10 | 0.00 | 83 | 1016.4 |
| 20260507072437 | 10 | 280 | 0.0 | 6.4 | 0.00 | 0.10 | 0.00 | 84 | 1016.3 |
| 20260507071927 | 10 | 269 | 0.0 | 1.6 | 0.00 | 0.10 | 0.00 | 84 | 1016.2 |
| 20260507071428 | 10 | 4 | 0.0 | 1.6 | 0.00 | 0.10 | 0.00 | 83 | 1016.1 |
| 20260507070939 | 10 | 215 | 0.0 | 1.6 | 0.00 | 0.10 | 0.00 | 84 | 1016.2 |
| 20260507070418 | 10 | 310 | 0.0 | 1.6 | 0.00 | 0.10 | 0.00 | 84 | 1016.1 |
| 20260507065931 | 10 | 304 | 0.0 | 3.2 | 0.00 | 0.10 | 0.00 | 84 | 1016.1 |
| 20260507065424 | 10 | 295 | 0.0 | 3.2 | 0.00 | 0.10 | 0.00 | 85 | 1016.1 |
| 20260507064912 | 10 | 219 | 0.0 | 3.2 | 0.00 | 0.10 | 0.00 | 85 | 1016.1 |
| 20260507064431 | 10 | 297 | 0.0 | 3.2 | 0.00 | 0.10 | 0.00 | 85 | 1016.0 |
| 20260507063930 | 10 | 187 | 0.0 | 1.6 | 0.00 | 0.10 | 0.00 | 85 | 1016.1 |
| 20260507063418 | 9 | 187 | 0.0 | 1.6 | 0.00 | 0.10 | 0.00 | 85 | 1016.0 |
| 20260507062931 | 9 | 187 | 0.0 | 1.6 | 0.00 | 0.10 | 0.00 | 85 | 1016.0 |
| 20260507062416 | 9 | 202 | 0.0 | 1.6 | 0.00 | 0.10 | 0.00 | 85 | 1016.0 |
| 20260507061929 | 9 | 160 | 0.0 | 1.6 | 0.00 | 0.10 | 0.00 | 86 | 1016.0 |
| 20260507061409 | 9 | 160 | 0.0 | 0.0 | 0.00 | 0.10 | 0.00 | 87 | 1015.9 |
| 20260507060923 | 8 | 160 | 0.0 | 0.0 | 0.00 | 0.10 | 0.00 | 87 | 1015.9 |
| 20260507060425 | 8 | 160 | 0.0 | 0.0 | 0.00 | 0.10 | 0.00 | 87 | 1015.8 |
| 20260507055932 | 8 | 160 | 0.0 | 0.0 | 0.00 | 0.10 | 0.00 | 88 | 1015.8 |
| 20260507055415 | 8 | 160 | 0.0 | 0.0 | 0.00 | 0.10 | 0.00 | 88 | 1015.8 |
| 20260507054928 | 8 | 160 | 0.0 | 0.0 | 0.00 | 0.10 | 0.00 | 88 | 1015.7 |
| 20260507054441 | 8 | 160 | 0.0 | 0.0 | 0.00 | 0.10 | 0.00 | 88 | 1015.6 |
| 20260507053924 | 8 | 160 | 0.0 | 0.0 | 0.00 | 0.10 | 0.00 | 88 | 1015.6 |
| 20260507053417 | 8 | 160 | 526.3 | 0.0 | 0.00 | 0.10 | 0.00 | 88 | 1015.5 |
| 20260507052930 | -17 | 0.0 | 0.0 | 0.00 | 0.10 | 0.00 | 1015.5 | ||
| 20260507052425 | -17 | 0.0 | 0.0 | 0.00 | 0.10 | 0.00 | 1015.4 | ||
| 20260507051950 | -17 | 0.0 | 0.0 | 0.00 | 0.10 | 0.00 | 1015.5 | ||
| 20260507051423 | -17 | 0.0 | 0.0 | 0.00 | 0.10 | 0.00 | 1015.5 | ||
| 20260507050430 | -17 | 0.0 | 0.0 | 0.00 | 0.10 | 0.00 | 1015.3 | ||
| 20260507045921 | -17 | 0.0 | 0.0 | 0.00 | 0.10 | 0.00 | 1015.3 | ||
| 20260507045421 | -17 | 0.0 | 0.0 | 0.00 | 0.10 | 0.00 | 1015.3 | ||
| 20260507044915 | -17 | 0.0 | 0.0 | 0.00 | 0.10 | 0.00 | 1015.2 | ||
| 20260507044534 | -17 | 0.0 | 0.0 | 0.00 | 0.10 | 0.00 | 1015.2 | ||
| 20260507043919 | -17 | 0.0 | 0.0 | 0.00 | 0.10 | 0.00 | 1015.1 | ||
| 20260507043412 | -17 | 0.0 | 0.0 | 0.00 | 0.10 | 0.00 | 1015.1 | ||
| 20260507042915 | -17 | 0.0 | 0.0 | 0.00 | 0.10 | 0.00 | 1015.1 | ||
| 20260507041922 | 7 | 155 | 0.0 | 0.0 | 0.00 | 0.10 | 0.00 | 87 | 1015.0 |
| 20260507041413 | 8 | 160 | 0.0 | 0.0 | 0.00 | 0.10 | 0.00 | 88 | 1015.0 |
| 20260507040429 | 8 | 160 | 0.0 | 0.0 | 0.00 | 0.10 | 0.00 | 88 | 1015.0 |
| 20260507040000 | 8 | 160 | 0.0 | 0.0 | 0.00 | 0.10 | 0.00 | 88 | 1015.0 |
| 20260507035422 | 8 | 160 | 0.0 | 1.6 | 0.00 | 0.10 | 0.00 | 88 | 1014.9 |
| 20260507034915 | 8 | 160 | 0.0 | 1.6 | 0.00 | 0.10 | 0.00 | 88 | 1014.9 |
| 20260507034428 | 8 | 131 | 0.0 | 1.6 | 0.00 | 0.10 | 0.00 | 88 | 1014.9 |
| 20260507033435 | 8 | 146 | 0.0 | 1.6 | 0.00 | 0.10 | 0.00 | 87 | 1014.8 |
| 20260507032927 | 8 | 146 | 0.0 | 0.0 | 0.00 | 0.10 | 0.00 | 87 | 1014.7 |
| 20260507032447 | 8 | 146 | 0.0 | 0.0 | 0.00 | 0.10 | 0.00 | 86 | 1014.7 |
| 20260507031937 | 8 | 146 | 0.0 | 1.6 | 0.00 | 0.10 | 0.00 | 87 | 1014.7 |
| 20260507031438 | 8 | 146 | 0.0 | 1.6 | 0.00 | 0.10 | 0.00 | 87 | 1014.7 |
| 20260507030927 | 8 | 146 | 0.0 | 0.0 | 0.00 | 0.10 | 0.00 | 86 | 1014.6 |
| 20260507030412 | 8 | 285 | 0.0 | 0.0 | 0.00 | 0.10 | 0.00 | 84 | 1014.6 |
| 20260507025948 | 8 | 284 | 0.0 | 0.0 | 0.00 | 0.10 | 0.00 | 83 | 1014.6 |
| 20260507025412 | 8 | 285 | 0.0 | 0.0 | 0.00 | 0.20 | 0.00 | 83 | 1014.6 |
| 20260507024947 | 8 | 285 | 0.0 | 0.0 | 0.00 | 0.20 | 0.00 | 83 | 1014.6 |
| 20260507024417 | 8 | 284 | 0.0 | 0.0 | 0.00 | 0.20 | 0.00 | 84 | 1014.6 |
| 20260507023930 | 8 | 285 | 0.0 | 0.0 | 0.00 | 0.20 | 0.00 | 85 | 1014.5 |
| 20260507023414 | 8 | 285 | 0.0 | 1.6 | 0.00 | 0.20 | 0.00 | 86 | 1014.5 |
| 20260507022419 | 8 | 284 | 0.0 | 1.6 | 0.00 | 0.20 | 0.00 | 87 | 1014.4 |
| 20260507021950 | 8 | 285 | 0.0 | 1.6 | 0.00 | 0.20 | 0.00 | 87 | 1014.5 |
| 20260507021428 | 8 | 285 | 0.0 | 0.0 | 0.00 | 0.20 | 0.00 | 87 | 1014.5 |
| 20260507020921 | 8 | 285 | 0.0 | 0.0 | 0.00 | 0.20 | 0.00 | 86 | 1014.4 |
| 20260507020418 | 8 | 285 | 0.0 | 0.0 | 0.00 | 0.20 | 0.00 | 85 | 1014.3 |
| 20260507015927 | 8 | 284 | 0.0 | 0.0 | 0.00 | 0.20 | 0.00 | 85 | 1014.3 |
| 20260507015424 | 8 | 285 | 0.0 | 0.0 | 0.00 | 0.20 | 0.00 | 85 | 1014.2 |
| 20260507014915 | 8 | 285 | 0.0 | 0.0 | 0.00 | 0.20 | 0.00 | 86 | 1014.2 |
| 20260507014449 | 8 | 285 | 0.0 | 0.0 | 0.00 | 0.20 | 0.00 | 87 | 1014.2 |
| 20260507013938 | 8 | 285 | 0.0 | 0.0 | 0.00 | 0.20 | 0.00 | 85 | 1014.1 |
| 20260507013424 | 8 | 285 | 0.0 | 0.0 | 0.00 | 0.20 | 0.00 | 84 | 1014.1 |
| 20260507012937 | 8 | 285 | 0.0 | 0.0 | 0.00 | 0.20 | 0.00 | 83 | 1014.1 |
| 20260507012458 | 8 | 285 | 0.0 | 0.0 | 0.00 | 0.20 | 0.00 | 84 | 1014.1 |
| 20260507011921 | 8 | 285 | 0.0 | 0.0 | 0.00 | 0.20 | 0.00 | 85 | 1014.1 |
| 20260507011432 | 8 | 285 | 0.0 | 0.0 | 0.00 | 0.20 | 0.00 | 85 | 1014.1 |
| 20260507010942 | 8 | 285 | 0.0 | 0.0 | 0.00 | 0.20 | 0.00 | 82 | 1014.2 |
| 20260507010428 | 8 | 285 | 0.0 | 0.0 | 0.00 | 0.20 | 0.00 | 82 | 1014.2 |
| 20260507005938 | 8 | 285 | 0.0 | 0.0 | 0.00 | 0.20 | 0.00 | 83 | 1014.1 |
| 20260507005410 | 9 | 285 | 0.0 | 0.0 | 0.00 | 0.20 | 0.00 | 83 | 1014.1 |
| 20260507004913 | 9 | 285 | 0.0 | 0.0 | 0.00 | 0.20 | 0.00 | 83 | 1014.1 |
| 20260507004421 | 9 | 285 | 0.0 | 0.0 | 0.00 | 0.20 | 0.00 | 80 | 1014.1 |
| 20260507003915 | 9 | 285 | 0.0 | 0.0 | 0.00 | 0.20 | 0.00 | 81 | 1014.1 |
| 20260507003417 | 9 | 285 | 0.0 | 0.0 | 0.00 | 0.20 | 0.00 | 80 | 1014.0 |
| 20260507002926 | 9 | 285 | 0.0 | 0.0 | 0.00 | 0.20 | 0.00 | 80 | 1014.0 |
| 20260507002420 | 9 | 285 | 0.0 | 0.0 | 0.00 | 0.20 | 0.00 | 80 | 1014.0 |
| 20260507001950 | 9 | 285 | 0.0 | 0.0 | 0.00 | 0.20 | 0.00 | 80 | 1014.0 |
| 20260507001500 | 9 | 285 | 0.0 | 0.0 | 0.00 | 0.20 | 0.00 | 80 | 1014.0 |
| 20260507000922 | 9 | 285 | 0.0 | 0.0 | 0.00 | 0.20 | 0.00 | 80 | 1013.9 |
| 20260507000458 | 9 | 285 | 0.0 | 0.0 | 0.00 | 0.20 | 0.00 | 80 | 1013.9 |
| 20260506235917 | 9 | 285 | 0.0 | 0.0 | 0.00 | 0.20 | 0.00 | 80 | 1013.9 |
| 20260506235450 | 9 | 285 | 0.0 | 0.0 | 0.00 | 0.51 | 0.00 | 80 | 1013.9 |
| 20260506234942 | 9 | 285 | 0.0 | 1.6 | 0.00 | 0.51 | 0.00 | 80 | 1013.9 |
| 20260506234423 | 9 | 285 | 0.0 | 1.6 | 0.00 | 0.51 | 0.00 | 80 | 1013.9 |
| 20260506233917 | 9 | 285 | 0.0 | 0.0 | 0.00 | 0.51 | 0.00 | 79 | 1013.8 |
| 20260506233430 | 9 | 285 | 0.0 | 0.0 | 0.00 | 0.51 | 0.00 | 79 | 1013.8 |
| 20260506232913 | 9 | 285 | 0.0 | 0.0 | 0.00 | 0.51 | 0.00 | 79 | 1013.7 |
| 20260506232427 | 9 | 285 | 0.0 | 0.0 | 0.00 | 0.51 | 0.00 | 79 | 1013.7 |
| 20260506231935 | 9 | 285 | 0.0 | 0.0 | 0.00 | 0.51 | 0.00 | 79 | 1013.7 |
| 20260506231418 | 9 | 285 | 0.0 | 0.0 | 0.00 | 0.51 | 0.00 | 79 | 1013.7 |
| 20260506230932 | 9 | 285 | 0.0 | 0.0 | 0.00 | 0.51 | 0.00 | 79 | 1013.7 |
| 20260506230439 | 9 | 285 | 0.0 | 0.0 | 0.00 | 0.51 | 0.00 | 79 | 1013.5 |
| 20260506225952 | 9 | 285 | 0.0 | 0.0 | 0.00 | 0.51 | 0.00 | 79 | 1013.5 |
| 20260506225414 | 9 | 285 | 0.0 | 0.0 | 0.00 | 0.89 | 0.00 | 79 | 1013.5 |
| 20260506224928 | 9 | 285 | 0.0 | 0.0 | 0.00 | 0.89 | 0.00 | 79 | 1013.5 |
| 20260506224426 | 9 | 285 | 0.0 | 0.0 | 0.00 | 0.89 | 0.00 | 78 | 1013.4 |
| 20260506223917 | 9 | 285 | 0.0 | 0.0 | 0.00 | 0.89 | 0.00 | 78 | 1013.4 |
| 20260506223432 | 9 | 285 | 0.0 | 0.0 | 0.00 | 0.89 | 0.00 | 78 | 1013.4 |
| 20260506222914 | 9 | 285 | 0.0 | 0.0 | 0.00 | 0.89 | 0.00 | 78 | 1013.4 |
| 20260506222429 | 9 | 285 | 0.0 | 0.0 | 0.00 | 0.89 | 0.00 | 79 | 1013.4 |
| 20260506221912 | 9 | 285 | 0.0 | 0.0 | 0.00 | 0.89 | 0.00 | 79 | 1013.4 |
| 20260506221423 | 9 | 285 | 0.0 | 0.0 | 0.00 | 0.89 | 0.00 | 80 | 1013.3 |
| 20260506220934 | 9 | 285 | 0.0 | 0.0 | 0.00 | 0.89 | 0.00 | 79 | 1013.3 |
| 20260506220437 | 9 | 285 | 0.0 | 0.0 | 0.00 | 0.89 | 0.00 | 80 | 1013.3 |
| 20260506215917 | 8 | 285 | 0.0 | 0.0 | 0.00 | 0.89 | 0.00 | 80 | 1013.3 |
| 20260506215428 | 8 | 285 | 0.0 | 0.0 | 0.00 | 1.30 | 0.18 | 80 | 1013.4 |
| 20260506214940 | 8 | 285 | 0.0 | 0.0 | 0.00 | 1.30 | 0.18 | 81 | 1013.4 |
| 20260506214413 | 8 | 285 | 0.0 | 0.0 | 0.00 | 1.30 | 0.18 | 81 | 1013.3 |
| 20260506213942 | 8 | 285 | 0.0 | 0.0 | 0.00 | 1.30 | 0.18 | 82 | 1013.3 |
| 20260506213431 | 8 | 285 | 0.0 | 0.0 | 0.00 | 1.30 | 0.18 | 81 | 1013.2 |
| 20260506212926 | 8 | 285 | 0.0 | 0.0 | 0.00 | 1.30 | 0.18 | 82 | 1013.2 |
| 20260506212411 | 8 | 285 | 0.0 | 0.0 | 0.00 | 1.30 | 0.18 | 82 | 1013.2 |
| 20260506211944 | 8 | 285 | 0.0 | 0.0 | 0.00 | 1.30 | 0.18 | 82 | 1013.2 |
| 20260506211435 | 8 | 285 | 0.0 | 0.0 | 0.00 | 1.30 | 0.18 | 82 | 1013.1 |
| 20260506210928 | 8 | 285 | 0.0 | 0.0 | 0.00 | 1.30 | 0.18 | 81 | 1013.0 |
| 20260506210434 | 8 | 285 | 0.0 | 0.0 | 0.00 | 1.30 | 0.18 | 81 | 1013.1 |
| 20260506205947 | 8 | 285 | 0.0 | 0.0 | 0.00 | 1.30 | 0.18 | 81 | 1013.0 |
| 20260506205422 | 8 | 285 | 0.0 | 0.0 | 0.00 | 1.60 | 0.18 | 81 | 1013.0 |
| 20260506204913 | 8 | 285 | 0.0 | 0.0 | 0.00 | 1.60 | 0.18 | 81 | 1013.0 |
| 20260506204445 | 8 | 285 | 0.0 | 0.0 | 0.00 | 1.60 | 0.18 | 81 | 1012.9 |
| 20260506203935 | 8 | 285 | 0.0 | 0.0 | 0.00 | 1.60 | 0.18 | 80 | 1013.0 |
| 20260506203415 | 8 | 285 | 0.0 | 0.0 | 0.00 | 1.60 | 0.18 | 80 | 1012.9 |
| 20260506202930 | 8 | 285 | 0.0 | 0.0 | 0.00 | 1.60 | 0.18 | 80 | 1012.9 |
| 20260506202412 | 8 | 285 | 0.0 | 0.0 | 0.00 | 1.60 | 0.18 | 79 | 1012.9 |
| 20260506201922 | 9 | 285 | 0.0 | 0.0 | 0.00 | 1.60 | 0.18 | 79 | 1012.8 |
| 20260506201433 | 9 | 285 | 0.0 | 1.6 | 0.00 | 1.60 | 0.18 | 78 | 1012.8 |
| 20260506200919 | 9 | 285 | 0.0 | 1.6 | 0.00 | 1.60 | 0.18 | 78 | 1012.7 |
| 20260506200423 | 10 | 285 | 0.0 | 3.2 | 0.00 | 1.60 | 0.18 | 77 | 1012.7 |
| 20260506195936 | 10 | 304 | 0.0 | 4.8 | 0.00 | 1.60 | 0.18 | 77 | 1012.7 |
| 20260506195420 | 10 | 267 | 1.6 | 6.4 | 0.00 | 1.91 | 0.18 | 76 | 1012.7 |
| 20260506194931 | 10 | 302 | 3.2 | 6.4 | 0.00 | 1.91 | 0.18 | 75 | 1012.6 |
| 20260506193927 | 10 | 337 | 1.6 | 6.4 | 0.00 | 1.91 | 0.18 | 75 | 1012.5 |
| 20260506193441 | 10 | 344 | 1.6 | 6.4 | 0.00 | 1.91 | 0.18 | 74 | 1012.5 |
| 20260506192932 | 11 | 279 | 1.6 | 6.4 | 0.00 | 1.91 | 0.18 | 74 | 1012.5 |
| 20260506192413 | 11 | 17 | 1.6 | 6.4 | 0.00 | 1.91 | 0.18 | 73 | 1012.3 |
| 20260506191927 | 11 | 307 | 1.6 | 4.8 | 0.00 | 1.91 | 0.18 | 72 | 1012.2 |
| 20260506191411 | 11 | 296 | 1.6 | 6.4 | 0.00 | 1.91 | 0.18 | 71 | 1012.2 |
| 20260506190925 | 11 | 322 | 1.6 | 3.2 | 0.00 | 1.91 | 0.18 | 72 | 1012.1 |
| 20260506190427 | 11 | 300 | 0.0 | 4.8 | 0.00 | 1.91 | 0.18 | 70 | 1012.0 |
| 20260506185939 | 11 | 269 | 1.6 | 4.8 | 0.00 | 1.91 | 0.18 | 70 | 1011.9 |
| 20260506185414 | 11 | 310 | 1.6 | 6.4 | 0.00 | 1.91 | 0.18 | 70 | 1011.8 |
| 20260506184925 | 11 | 6 | 1.6 | 6.4 | 0.00 | 1.91 | 0.18 | 70 | 1011.8 |
| 20260506184437 | 11 | 289 | 1.6 | 3.2 | 0.00 | 1.91 | 0.18 | 69 | 1011.7 |
| 20260506183921 | 11 | 273 | 0.0 | 3.2 | 0.00 | 1.91 | 0.18 | 72 | 1011.6 |
| 20260506183433 | 11 | 13 | 0.0 | 3.2 | 0.00 | 1.91 | 0.18 | 72 | 1011.5 |
| 20260506182918 | 12 | 271 | 0.0 | 4.8 | 0.00 | 1.91 | 0.18 | 72 | 1011.5 |
| 20260506182431 | 12 | 286 | 0.0 | 4.8 | 0.00 | 1.91 | 0.18 | 71 | 1011.4 |
| 20260506181942 | 12 | 268 | 0.0 | 3.2 | 0.00 | 1.91 | 0.18 | 71 | 1011.4 |
| 20260506181432 | 12 | 239 | 1.6 | 8.0 | 0.00 | 1.91 | 0.18 | 71 | 1011.2 |
| 20260506180916 | 12 | 330 | 1.6 | 8.0 | 0.00 | 1.91 | 0.18 | 72 | 1011.2 |
| 20260506180422 | 12 | 244 | 3.2 | 6.4 | 0.00 | 1.91 | 0.18 | 72 | 1011.1 |
| 20260506175932 | 12 | 269 | 1.6 | 11.3 | 0.00 | 1.91 | 0.18 | 73 | 1011.1 |
| 20260506175415 | 12 | 9 | 3.2 | 11.3 | 0.00 | 1.91 | 0.18 | 71 | 1011.0 |
| 20260506174927 | 12 | 223 | 0.0 | 3.2 | 0.00 | 1.91 | 0.18 | 72 | 1010.9 |
| 20260506174411 | 12 | 206 | 0.0 | 3.2 | 0.00 | 1.91 | 0.18 | 72 | 1010.8 |
| 20260506173925 | 12 | 206 | 0.0 | 1.6 | 0.00 | 1.91 | 0.18 | 72 | 1010.7 |
| 20260506173436 | 12 | 246 | 0.0 | 4.8 | 0.00 | 1.91 | 0.18 | 72 | 1010.7 |
| 20260506172929 | 12 | 217 | 0.0 | 3.2 | 0.00 | 1.91 | 0.18 | 72 | 1010.6 |
| 20260506172414 | 12 | 217 | 0.0 | 1.6 | 0.00 | 1.91 | 0.18 | 73 | 1010.6 |
| 20260506171922 | 12 | 212 | 0.0 | 3.2 | 0.00 | 1.91 | 0.18 | 73 | 1010.6 |
| 20260506171427 | 12 | 212 | 0.0 | 3.2 | 0.00 | 1.91 | 0.18 | 72 | 1010.5 |
| 20260506170920 | 12 | 219 | 0.0 | 4.8 | 0.00 | 1.91 | 0.18 | 72 | 1010.5 |
| 20260506170426 | 12 | 335 | 0.0 | 4.8 | 0.00 | 1.91 | 0.18 | 73 | 1010.5 |
| 20260506165933 | 12 | 259 | 0.0 | 4.8 | 0.00 | 1.91 | 0.18 | 74 | 1010.5 |
| 20260506165413 | 12 | 200 | 0.0 | 4.8 | 0.00 | 1.91 | 0.18 | 73 | 1010.4 |
| 20260506164934 | 12 | 205 | 1.6 | 4.8 | 0.00 | 1.91 | 0.18 | 74 | 1010.4 |
| 20260506164439 | 12 | 269 | 0.0 | 3.2 | 0.00 | 1.91 | 0.18 | 75 | 1010.4 |
| 20260506163930 | 12 | 292 | 0.0 | 3.2 | 0.00 | 1.91 | 0.18 | 75 | 1010.3 |
| 20260506163425 | 12 | 301 | 1.6 | 3.2 | 0.00 | 1.91 | 0.18 | 75 | 1010.3 |
| 20260506162959 | 12 | 276 | 1.6 | 3.2 | 0.00 | 1.91 | 0.18 | 76 | 1010.3 |
| 20260506162422 | 12 | 285 | 1.6 | 3.2 | 0.00 | 1.91 | 0.18 | 75 | 1010.3 |
| 20260506161914 | 12 | 281 | 1.6 | 3.2 | 0.00 | 1.91 | 0.18 | 75 | 1010.3 |
| 20260506161418 | 12 | 320 | 0.0 | 4.8 | 0.00 | 1.91 | 0.18 | 76 | 1010.3 |
| 20260506160930 | 12 | 302 | 0.0 | 4.8 | 0.00 | 1.91 | 0.18 | 75 | 1010.3 |
| 20260506160413 | 12 | 326 | 0.0 | 3.2 | 0.00 | 1.91 | 0.18 | 75 | 1010.3 |
| 20260506155916 | 12 | 291 | 0.0 | 3.2 | 0.00 | 1.91 | 0.18 | 74 | 1010.3 |
| 20260506155428 | 12 | 319 | 0.0 | 6.4 | 0.00 | 1.91 | 0.18 | 74 | 1010.3 |
| 20260506154921 | 12 | 316 | 1.6 | 6.4 | 0.00 | 1.91 | 0.18 | 74 | 1010.3 |
| 20260506154420 | 12 | 327 | 0.0 | 4.8 | 0.00 | 1.91 | 0.18 | 73 | 1010.3 |
| 20260506153914 | 12 | 315 | 1.6 | 6.4 | 0.00 | 1.91 | 0.18 | 73 | 1010.3 |
| 20260506153446 | 12 | 291 | 1.6 | 6.4 | 0.00 | 1.91 | 0.18 | 73 | 1010.3 |
| 20260506152938 | 12 | 302 | 1.6 | 6.4 | 0.00 | 1.91 | 0.18 | 72 | 1010.3 |
| 20260506152421 | 12 | 300 | 1.6 | 8.0 | 0.00 | 1.91 | 0.18 | 72 | 1010.3 |
| 20260506151935 | 12 | 315 | 1.6 | 16.1 | 0.00 | 1.91 | 0.18 | 71 | 1010.3 |
| 20260506151415 | 13 | 274 | 1.6 | 11.3 | 0.00 | 1.91 | 0.18 | 71 | 1010.3 |
| 20260506150916 | 13 | 194 | 3.2 | 11.3 | 0.00 | 1.91 | 0.18 | 71 | 1010.2 |
| 20260506150417 | 13 | 203 | 3.2 | 8.0 | 0.00 | 1.91 | 0.18 | 70 | 1010.2 |
| 20260506145921 | 13 | 225 | 1.6 | 8.0 | 0.00 | 1.91 | 0.18 | 71 | 1010.3 |
| 20260506145427 | 13 | 208 | 0.0 | 9.7 | 0.00 | 1.91 | 0.18 | 70 | 1010.2 |
| 20260506144436 | 14 | 309 | 6.4 | 11.3 | 0.00 | 1.91 | 0.18 | 67 | 1010.1 |
| 20260506143911 | 14 | 321 | 3.2 | 9.7 | 0.00 | 1.91 | 0.18 | 70 | 1010.1 |
| 20260506143424 | 13 | 319 | 1.6 | 9.7 | 0.00 | 1.91 | 0.18 | 71 | 1010.0 |
| 20260506142936 | 13 | 248 | 3.2 | 11.3 | 0.00 | 1.91 | 0.18 | 70 | 1010.0 |
| 20260506142416 | 13 | 270 | 4.8 | 11.3 | 0.00 | 1.91 | 0.18 | 70 | 1010.0 |
| 20260506141928 | 14 | 352 | 3.2 | 8.0 | 0.00 | 1.91 | 0.18 | 71 | 1010.1 |
| 20260506141426 | 14 | 8 | 0.0 | 8.0 | 0.00 | 1.91 | 0.18 | 69 | 1010.0 |
| 20260506140929 | 14 | 326 | 1.6 | 8.0 | 0.00 | 1.91 | 0.18 | 73 | 1010.0 |
| 20260506135913 | 14 | 326 | 3.2 | 14.5 | 0.00 | 1.91 | 0.18 | 73 | 1010.1 |
| 20260506135425 | 14 | 208 | 4.8 | 14.5 | 0.00 | 1.91 | 0.18 | 72 | 1010.0 |
| 20260506134911 | 14 | 239 | 6.4 | 12.9 | 0.00 | 1.91 | 0.18 | 70 | 1010.0 |
| 20260506134443 | 14 | 309 | 1.6 | 8.0 | 0.00 | 1.91 | 0.18 | 72 | 1010.0 |
| 20260506133913 | 14 | 211 | 1.6 | 6.4 | 0.00 | 1.91 | 0.18 | 73 | 1010.0 |
| 20260506133425 | 14 | 223 | 1.6 | 4.8 | 0.00 | 1.91 | 0.18 | 73 | 1009.9 |
| 20260506132927 | 13 | 240 | 1.6 | 8.0 | 0.00 | 1.91 | 0.18 | 72 | 1010.0 |
| 20260506132419 | 13 | 306 | 0.0 | 8.0 | 0.00 | 1.91 | 0.18 | 71 | 1010.0 |
| 20260506131911 | 13 | 203 | 3.2 | 9.7 | 0.00 | 1.91 | 0.18 | 73 | 1010.0 |
| 20260506131425 | 13 | 224 | 3.2 | 9.7 | 0.00 | 1.91 | 0.18 | 72 | 1010.0 |
| 20260506130939 | 13 | 181 | 1.6 | 6.4 | 0.00 | 1.91 | 0.18 | 74 | 1009.9 |
| 20260506130416 | 13 | 278 | 1.6 | 6.4 | 0.00 | 1.91 | 0.18 | 75 | 1009.9 |
| 20260506125929 | 13 | 348 | 1.6 | 6.4 | 0.00 | 1.91 | 0.18 | 73 | 1009.9 |
| 20260506125438 | 13 | 319 | 1.6 | 3.2 | 0.00 | 1.91 | 0.18 | 73 | 1009.8 |
| 20260506124951 | 13 | 311 | 0.0 | 3.2 | 0.00 | 1.91 | 0.18 | 75 | 1009.8 |
| 20260506124412 | 13 | 335 | 1.6 | 4.8 | 0.00 | 1.91 | 0.18 | 74 | 1009.8 |
| 20260506123924 | 13 | 264 | 1.6 | 4.8 | 0.00 | 1.91 | 0.18 | 74 | 1009.8 |
| 20260506123430 | 13 | 276 | 0.0 | 3.2 | 0.00 | 1.91 | 0.18 | 77 | 1009.8 |
| 20260506122927 | 13 | 174 | 0.0 | 6.4 | 0.00 | 1.91 | 0.18 | 77 | 1009.8 |
| 20260506122440 | 12 | 208 | 0.0 | 6.4 | 0.00 | 1.91 | 0.18 | 76 | 1009.9 |
| 20260506121931 | 12 | 252 | 0.0 | 6.4 | 0.00 | 1.91 | 0.18 | 76 | 1009.9 |
| 20260506121415 | 13 | 295 | 3.2 | 8.0 | 0.00 | 1.91 | 0.18 | 74 | 1009.9 |
| 20260506120927 | 13 | 306 | 3.2 | 8.0 | 0.00 | 1.91 | 0.18 | 79 | 1009.9 |
| 20260506120411 | 13 | 305 | 1.6 | 6.4 | 0.00 | 1.91 | 0.18 | 78 | 1009.9 |
| 20260506115915 | 12 | 193 | 0.0 | 4.8 | 0.00 | 1.91 | 0.18 | 79 | 1009.9 |
| 20260506115426 | 12 | 189 | 0.0 | 6.4 | 0.00 | 1.91 | 0.18 | 79 | 1009.8 |
| 20260506114940 | 12 | 339 | 1.6 | 6.4 | 0.00 | 1.91 | 0.18 | 79 | 1009.8 |
| 20260506114423 | 12 | 16 | 1.6 | 4.8 | 0.00 | 1.91 | 0.18 | 78 | 1009.8 |
| 20260506113916 | 12 | 319 | 0.0 | 6.4 | 0.00 | 1.91 | 0.18 | 78 | 1009.8 |
| 20260506113418 | 12 | 185 | 1.6 | 6.4 | 0.00 | 1.91 | 0.18 | 79 | 1009.9 |
| 20260506112911 | 12 | 189 | 1.6 | 3.2 | 0.00 | 1.91 | 0.18 | 82 | 1009.9 |
| 20260506112424 | 12 | 198 | 0.0 | 3.2 | 0.00 | 1.91 | 0.18 | 84 | 1009.8 |
| 20260506111955 | 12 | 120 | 0.0 | 6.4 | 0.00 | 1.91 | 0.18 | 85 | 1009.9 |
| 20260506111418 | 12 | 176 | 0.0 | 6.4 | 0.00 | 1.91 | 0.18 | 85 | 1009.9 |
| 20260506110929 | 12 | 212 | 1.6 | 4.8 | 0.00 | 1.91 | 0.18 | 84 | 1009.8 |
| 20260506110434 | 12 | 184 | 0.0 | 4.8 | 0.00 | 1.91 | 0.18 | 85 | 1009.9 |
| 20260506105913 | 11 | 205 | 1.6 | 9.7 | 0.00 | 1.91 | 0.18 | 84 | 1009.9 |
| 20260506105424 | 12 | 229 | 0.0 | 6.4 | 0.00 | 1.91 | 0.18 | 85 | 1009.9 |
| 20260506104935 | 12 | 207 | 1.6 | 6.4 | 0.00 | 1.91 | 0.18 | 85 | 1010.0 |
| 20260506104420 | 12 | 207 | 1.6 | 6.4 | 0.00 | 1.91 | 0.18 | 86 | 1010.0 |
| 20260506103931 | 11 | 245 | 3.2 | 6.4 | 0.00 | 1.91 | 0.18 | 85 | 1010.1 |
| 20260506103424 | 11 | 248 | 1.6 | 8.0 | 0.00 | 1.91 | 0.18 | 86 | 1010.1 |
| 20260506102958 | 11 | 153 | 3.2 | 8.0 | 0.00 | 1.91 | 0.18 | 87 | 1010.0 |
| 20260506102422 | 11 | 233 | 3.2 | 8.0 | 0.00 | 1.91 | 0.18 | 89 | 1010.0 |
| 20260506101914 | 11 | 193 | 0.0 | 6.4 | 0.00 | 1.91 | 0.18 | 90 | 1010.0 |
| 20260506101418 | 11 | 325 | 1.6 | 6.4 | 0.00 | 1.91 | 0.18 | 90 | 1010.0 |
| 20260506100930 | 11 | 274 | 1.6 | 4.8 | 0.00 | 1.91 | 0.18 | 91 | 1010.0 |
| 20260506100413 | 10 | 327 | 1.6 | 4.8 | 0.00 | 1.91 | 0.18 | 90 | 1010.0 |
| 20260506095917 | 10 | 230 | 0.0 | 3.2 | 0.00 | 1.91 | 0.18 | 91 | 1010.0 |
| 20260506095430 | 10 | 208 | 0.0 | 4.8 | 0.00 | 1.91 | 0.18 | 91 | 1010.0 |
| 20260506094924 | 10 | 225 | 0.0 | 8.0 | 0.00 | 1.91 | 0.18 | 91 | 1010.0 |
| 20260506094427 | 10 | 211 | 1.6 | 8.0 | 0.00 | 1.91 | 0.18 | 91 | 1010.0 |
| 20260506093918 | 10 | 325 | 1.6 | 6.4 | 0.00 | 1.91 | 0.18 | 91 | 1010.0 |
| 20260506093431 | 10 | 317 | 0.0 | 9.7 | 0.00 | 1.91 | 0.18 | 93 | 1009.9 |
| 20260506092911 | 10 | 214 | 3.2 | 9.7 | 0.00 | 1.91 | 0.18 | 92 | 1009.8 |
| 20260506092421 | 10 | 192 | 0.0 | 9.7 | 0.00 | 1.91 | 0.18 | 93 | 1009.8 |
| 20260506091924 | 10 | 316 | 3.2 | 9.7 | 0.00 | 1.91 | 0.18 | 93 | 1009.9 |
| 20260506091418 | 10 | 148 | 1.6 | 8.0 | 0.00 | 1.91 | 0.18 | 93 | 1009.8 |
| 20260506090931 | 10 | 215 | 1.6 | 8.0 | 0.00 | 1.91 | 0.18 | 93 | 1009.8 |
| 20260506090435 | 10 | 217 | 0.0 | 6.4 | 0.00 | 1.91 | 0.18 | 94 | 1009.8 |
| 20260506085918 | 9 | 311 | 0.0 | 4.8 | 0.00 | 1.91 | 0.18 | 94 | 1009.8 |
| 20260506085412 | 9 | 294 | 1.6 | 4.8 | 0.00 | 1.91 | 0.18 | 94 | 1009.7 |
| 20260506084924 | 9 | 286 | 0.0 | 6.4 | 0.00 | 1.91 | 0.18 | 94 | 1009.6 |
| 20260506084417 | 9 | 292 | 3.2 | 8.0 | 0.00 | 1.91 | 0.18 | 94 | 1009.6 |